Location: Domont
(49.0278°N, 2.3264°E)
Time: 10:58:17
(UTC+00:00)

DX 1 - Pass Details

Date: 30 June 2022
Orbit: 617 x 629 km, 98.4° (Epoch: 10 August)

Event Time Altitude Azimuth Distance (km) Brightness Sun altitude
Rises 20:40:33 0° 19° (NNE) 2,933 ? -5.9°
Reaches altitude 10° 20:42:51 10° 26° (NNE) 2,019 ? -6.2°
Maximum altitude 20:47:03 44° 99° (E) 879 ? -6.6°
Drops below altitude 10° 20:51:12 10° 172° (S) 1,998 ? -7.1°
Enters shadow 20:52:53 - 177° (S) 2,661 ? -7.3°
